星链-32703 (STARLINK-32703)

导读

STARLINK-32703是美国太空探索技术公司SpaceX星链星座的卫星,于2025年2月11日发射升空,星链星座旨在为全球用户提供高速、低延迟的宽带互联网服务,覆盖偏远地区与网络基础设施薄弱区域,该卫星入轨后将参与组网,进一步扩充星链星座的服务覆盖范围与容量,支撑星座的全球互联服务能力。

基本信息
目录编号:
62996
目录名称:
STARLINK-32703
国际标识:
2025-031R
轨道中心:
EARTH
卫星名称:
星链-32703
卫星全名:
星链-32703 (STARLINK-32703)
卫星状态:
在轨 (已飞行488 天)
发射日期:
2025-02-11 UTC
国别 :
美国 (US)
星等 :
--
轨道信息
数据来源 国际轨道数据
星历时间: 2026-06-13T12:01:11+0800
1天前
查看轨道信息
半长轴: 6861.164km
偏心率: 0.0001186
轨道倾角: 43.002°
近地点辐角 274.146°
升交点赤经 324.448°
平近点角 85.925°
近地点: 482.213km
远地点: 483.841km
周期: 94.266分钟
每日圈数: 15.275877
详细信息
固有亮度:
5
最大亮度:
2.5
卫星平台:
Starlink V1.0
覆盖范围:
全球
运营商:
太空探索技术公司
运营商所在国:
美国
制造商(研发单位):
太空探索技术公司
制造商所在国:
美国
使用方式:
暂无
卫星简介
Starlink 计划是 SpaceX 推出的全球卫星互联网项目,通过发射低轨道卫星,为全球尤其是偏远地区提供高速、低延迟的互联网服务。自 2019 年起,Starlink 已部署数千颗卫星,旨在缩小全球数字鸿沟,推动互联网普及。该项目还为军事、航空等行业提供通信支持,带来广泛经济效益。
2D轨道图
3D轨道图
轨道高度分析图
轨道倾角分析图
轨道综合分析图
查看轨道综合分析图